| time (UTC) | temp C | wind direction | speed KPH | gust KPH | rain 1hr cm | rain 24hr cm | rain mn cm | humidity % | barometer mb |
| 20260508000045 | 15 | 309 | 9.7 | 20.9 | 0.00 | 0.20 | 0.13 | 29 | 1014.9 |
| 20260507235544 | 16 | 284 | 4.8 | 16.1 | 0.00 | 0.20 | 0.13 | 29 | 1014.9 |
| 20260507235044 | 16 | 301 | 9.7 | 19.3 | 0.00 | 0.20 | 0.13 | 28 | 1014.9 |
| 20260507234544 | 16 | 332 | 8.0 | 19.3 | 0.00 | 0.20 | 0.13 | 27 | 1014.9 |
| 20260507234043 | 16 | 309 | 8.0 | 17.7 | 0.00 | 0.20 | 0.13 | 27 | 1015.0 |
| 20260507233542 | 16 | 262 | 4.8 | 19.3 | 0.00 | 0.20 | 0.13 | 29 | 1015.0 |
| 20260507233041 | 16 | 341 | 3.2 | 19.3 | 0.00 | 0.20 | 0.13 | 29 | 1015.1 |
| 20260507232544 | 16 | 319 | 1.6 | 14.5 | 0.00 | 0.20 | 0.13 | 30 | 1015.2 |
| 20260507232040 | 16 | 250 | 4.8 | 17.7 | 0.00 | 0.20 | 0.13 | 30 | 1015.2 |
| 20260507231541 | 15 | 322 | 3.2 | 17.7 | 0.00 | 0.20 | 0.13 | 31 | 1015.4 |
| 20260507231040 | 15 | 5 | 8.0 | 17.7 | 0.00 | 0.20 | 0.13 | 29 | 1015.4 |
| 20260507230542 | 15 | 314 | 8.0 | 16.1 | 0.00 | 0.20 | 0.13 | 30 | 1015.6 |
| 20260507230038 | 15 | 346 | 6.4 | 22.5 | 0.00 | 0.23 | 0.13 | 30 | 1015.6 |
| 20260507225538 | 15 | 344 | 12.9 | 22.5 | 0.00 | 0.23 | 0.13 | 29 | 1015.7 |
| 20260507225038 | 15 | 347 | 8.0 | 19.3 | 0.00 | 0.23 | 0.13 | 30 | 1015.7 |
| 20260507224537 | 16 | 279 | 6.4 | 22.5 | 0.00 | 0.23 | 0.13 | 28 | 1015.8 |
| 20260507224036 | 16 | 45 | 6.4 | 22.5 | 0.00 | 0.23 | 0.13 | 28 | 1015.8 |
| 20260507223538 | 17 | 259 | 9.7 | 37.0 | 0.00 | 0.23 | 0.13 | 28 | 1016.0 |
| 20260507223036 | 16 | 300 | 12.9 | 37.0 | 0.00 | 0.23 | 0.13 | 27 | 1016.1 |
| 20260507222539 | 16 | 303 | 11.3 | 24.1 | 0.00 | 0.23 | 0.13 | 27 | 1016.0 |
| 20260507222034 | 17 | 278 | 9.7 | 24.1 | 0.00 | 0.23 | 0.13 | 26 | 1016.1 |
| 20260507221534 | 17 | 315 | 8.0 | 20.9 | 0.00 | 0.23 | 0.13 | 27 | 1016.4 |
| 20260507221031 | 17 | 325 | 9.7 | 20.9 | 0.00 | 0.23 | 0.13 | 27 | 1016.5 |
| 20260507220531 | 17 | 323 | 8.0 | 29.0 | 0.00 | 0.23 | 0.13 | 28 | 1016.7 |
| 20260507220031 | 17 | 332 | 11.3 | 29.0 | 0.00 | 0.25 | 0.13 | 28 | 1016.8 |
| 20260507215531 | 17 | 342 | 8.0 | 24.1 | 0.00 | 0.25 | 0.13 | 28 | 1016.8 |
| 20260507215029 | 16 | 5 | 11.3 | 25.7 | 0.00 | 0.25 | 0.13 | 31 | 1016.9 |
| 20260507214527 | 16 | 46 | 9.7 | 25.7 | 0.00 | 0.25 | 0.13 | 30 | 1017.0 |
| 20260507214027 | 16 | 340 | 14.5 | 30.6 | 0.00 | 0.25 | 0.13 | 29 | 1017.0 |
| 20260507213526 | 17 | 323 | 16.1 | 30.6 | 0.00 | 0.25 | 0.13 | 27 | 1017.0 |
| 20260507213028 | 16 | 310 | 11.3 | 29.0 | 0.00 | 0.25 | 0.13 | 32 | 1017.1 |
| 20260507212524 | 16 | 317 | 6.4 | 35.4 | 0.00 | 0.25 | 0.13 | 31 | 1017.2 |
| 20260507212124 | 16 | 347 | 14.5 | 35.4 | 0.00 | 0.25 | 0.13 | 33 | 1017.2 |
| 20260507211523 | 16 | 14 | 11.3 | 22.5 | 0.00 | 0.25 | 0.13 | 30 | 1017.4 |
| 20260507211021 | 16 | 279 | 8.0 | 17.7 | 0.00 | 0.25 | 0.13 | 31 | 1017.5 |
| 20260507210520 | 16 | 298 | 8.0 | 19.3 | 0.00 | 0.25 | 0.13 | 34 | 1017.9 |
| 20260507210020 | 15 | 342 | 8.0 | 19.3 | 0.00 | 0.25 | 0.13 | 35 | 1018.0 |
| 20260507205518 | 15 | 262 | 8.0 | 25.7 | 0.00 | 0.25 | 0.13 | 35 | 1018.0 |
| 20260507205118 | 15 | 287 | 8.0 | 29.0 | 0.00 | 0.25 | 0.13 | 34 | 1018.1 |
| 20260507204516 | 15 | 328 | 12.9 | 25.7 | 0.00 | 0.25 | 0.13 | 34 | 1018.3 |
| 20260507204015 | 15 | 323 | 16.1 | 25.7 | 0.00 | 0.25 | 0.13 | 33 | 1018.4 |
| 20260507203515 | 15 | 338 | 6.4 | 25.7 | 0.00 | 0.25 | 0.13 | 35 | 1018.4 |
| 20260507203013 | 15 | 317 | 14.5 | 25.7 | 0.00 | 0.25 | 0.13 | 34 | 1018.7 |
| 20260507202514 | 15 | 306 | 9.7 | 27.4 | 0.00 | 0.25 | 0.13 | 34 | 1018.8 |
| 20260507202012 | 15 | 302 | 11.3 | 24.1 | 0.00 | 0.25 | 0.13 | 34 | 1018.8 |
| 20260507201514 | 15 | 17 | 9.7 | 19.3 | 0.00 | 0.25 | 0.13 | 34 | 1019.0 |
| 20260507201012 | 15 | 303 | 9.7 | 20.9 | 0.00 | 0.25 | 0.13 | 35 | 1019.2 |
| 20260507200510 | 15 | 24 | 8.0 | 22.5 | 0.00 | 0.25 | 0.13 | 35 | 1019.3 |
| 20260507200008 | 15 | 237 | 4.8 | 29.0 | 0.00 | 0.25 | 0.13 | 37 | 1019.2 |
| 20260507195508 | 14 | 274 | 12.9 | 29.0 | 0.00 | 0.25 | 0.13 | 38 | 1019.3 |
| 20260507195007 | 14 | 244 | 12.9 | 22.5 | 0.00 | 0.25 | 0.13 | 35 | 1019.4 |
| 20260507194506 | 14 | 293 | 11.3 | 22.5 | 0.00 | 0.25 | 0.13 | 37 | 1019.6 |
| 20260507194005 | 14 | 321 | 12.9 | 30.6 | 0.00 | 0.25 | 0.13 | 36 | 1019.7 |
| 20260507193504 | 13 | 322 | 11.3 | 30.6 | 0.00 | 0.25 | 0.13 | 36 | 1019.7 |
| 20260507193003 | 13 | 288 | 11.3 | 22.5 | 0.00 | 0.25 | 0.13 | 38 | 1019.9 |
| 20260507192502 | 13 | 276 | 8.0 | 22.5 | 0.00 | 0.25 | 0.13 | 38 | 1019.9 |
| 20260507192001 | 13 | 304 | 11.3 | 22.5 | 0.00 | 0.25 | 0.13 | 35 | 1020.3 |
| 20260507191617 | 13 | 292 | 11.3 | 22.5 | 0.00 | 0.25 | 0.13 | 35 | 1020.2 |
| 20260507191059 | 13 | 216 | 4.8 | 12.9 | 0.00 | 0.25 | 0.13 | 38 | 1020.4 |
| 20260507190559 | 13 | 283 | 4.8 | 14.5 | 0.00 | 0.25 | 0.13 | 36 | 1020.5 |
| 20260507190057 | 13 | 253 | 4.8 | 19.3 | 0.00 | 0.30 | 0.13 | 37 | 1020.7 |
| 20260507185556 | 12 | 348 | 9.7 | 19.3 | 0.00 | 0.30 | 0.13 | 35 | 1020.7 |
| 20260507185055 | 13 | 317 | 8.0 | 17.7 | 0.00 | 0.30 | 0.13 | 35 | 1020.9 |
| 20260507184602 | 12 | 300 | 8.0 | 17.7 | 0.00 | 0.30 | 0.13 | 35 | 1021.0 |
| 20260507184056 | 12 | 327 | 11.3 | 20.9 | 0.00 | 0.30 | 0.13 | 34 | 1021.2 |
| 20260507183553 | 13 | 254 | 4.8 | 20.9 | 0.00 | 0.30 | 0.13 | 33 | 1021.1 |
| 20260507183053 | 13 | 292 | 4.8 | 20.9 | 0.00 | 0.30 | 0.13 | 33 | 1021.3 |
| 20260507182553 | 13 | 245 | 6.4 | 11.3 | 0.00 | 0.30 | 0.13 | 31 | 1021.2 |
| 20260507182052 | 13 | 276 | 6.4 | 14.5 | 0.00 | 0.30 | 0.13 | 32 | 1021.4 |
| 20260507181550 | 12 | 315 | 1.6 | 14.5 | 0.00 | 0.30 | 0.13 | 31 | 1021.6 |
| 20260507181050 | 12 | 300 | 4.8 | 9.7 | 0.00 | 0.30 | 0.13 | 31 | 1021.5 |
| 20260507180549 | 12 | 262 | 1.6 | 14.5 | 0.00 | 0.30 | 0.13 | 30 | 1021.6 |
| 20260507180049 | 12 | 325 | 6.4 | 14.5 | 0.00 | 0.33 | 0.13 | 32 | 1021.6 |
| 20260507175549 | 12 | 265 | 4.8 | 12.9 | 0.00 | 0.33 | 0.13 | 30 | 1021.7 |
| 20260507175049 | 12 | 313 | 3.2 | 8.0 | 0.00 | 0.33 | 0.13 | 34 | 1021.7 |
| 20260507174548 | 12 | 317 | 0.0 | 12.9 | 0.00 | 0.33 | 0.13 | 36 | 1021.9 |
| 20260507174046 | 12 | 290 | 8.0 | 12.9 | 0.00 | 0.33 | 0.13 | 31 | 1022.1 |
| 20260507173544 | 12 | 277 | 3.2 | 12.9 | 0.00 | 0.33 | 0.13 | 34 | 1022.2 |
| 20260507173044 | 12 | 272 | 4.8 | 16.1 | 0.00 | 0.33 | 0.13 | 34 | 1022.4 |
| 20260507172543 | 12 | 269 | 4.8 | 16.1 | 0.00 | 0.33 | 0.13 | 37 | 1022.6 |
| 20260507172040 | 11 | 298 | 6.4 | 14.5 | 0.00 | 0.33 | 0.13 | 39 | 1022.7 |
| 20260507171547 | 11 | 318 | 8.0 | 14.5 | 0.00 | 0.33 | 0.13 | 38 | 1022.9 |
| 20260507171038 | 12 | 311 | 4.8 | 14.5 | 0.00 | 0.33 | 0.13 | 35 | 1023.0 |
| 20260507170538 | 11 | 343 | 6.4 | 16.1 | 0.00 | 0.33 | 0.13 | 32 | 1023.1 |
| 20260507170037 | 12 | 290 | 3.2 | 16.1 | 0.00 | 0.33 | 0.13 | 41 | 1023.1 |
| 20260507165537 | 11 | 309 | 4.8 | 14.5 | 0.00 | 0.33 | 0.13 | 39 | 1023.1 |
| 20260507165035 | 11 | 308 | 6.4 | 14.5 | 0.00 | 0.33 | 0.13 | 35 | 1023.1 |
| 20260507164536 | 11 | 340 | 3.2 | 14.5 | 0.00 | 0.33 | 0.13 | 40 | 1023.2 |
| 20260507164034 | 11 | 35 | 4.8 | 12.9 | 0.00 | 0.33 | 0.13 | 42 | 1023.1 |
| 20260507163531 | 11 | 279 | 1.6 | 17.7 | 0.00 | 0.33 | 0.13 | 43 | 1023.2 |
| 20260507163031 | 11 | 279 | 9.7 | 17.7 | 0.00 | 0.33 | 0.13 | 37 | 1023.4 |
| 20260507162528 | 10 | 296 | 4.8 | 14.5 | 0.00 | 0.33 | 0.13 | 44 | 1023.4 |
| 20260507162026 | 10 | 259 | 3.2 | 12.9 | 0.00 | 0.33 | 0.13 | 45 | 1023.4 |
| 20260507161525 | 10 | 295 | 4.8 | 16.1 | 0.00 | 0.33 | 0.13 | 46 | 1023.4 |
| 20260507161025 | 10 | 277 | 9.7 | 16.1 | 0.03 | 0.33 | 0.13 | 48 | 1023.5 |
| 20260507160528 | 9 | 215 | 6.4 | 14.5 | 0.03 | 0.33 | 0.13 | 51 | 1023.6 |
| 20260507160030 | 9 | 244 | 6.4 | 12.9 | 0.03 | 0.33 | 0.13 | 53 | 1023.6 |
| 20260507155524 | 8 | 270 | 4.8 | 12.9 | 0.03 | 0.33 | 0.13 | 54 | 1023.7 |
| 20260507155018 | 8 | 265 | 3.2 | 11.3 | 0.03 | 0.33 | 0.13 | 54 | 1023.8 |
| 20260507154519 | 8 | 287 | 4.8 | 12.9 | 0.05 | 0.33 | 0.13 | 55 | 1023.9 |
| 20260507154016 | 8 | 256 | 4.8 | 12.9 | 0.05 | 0.33 | 0.13 | 57 | 1024.0 |
| 20260507153513 | 7 | 267 | 4.8 | 12.9 | 0.05 | 0.33 | 0.13 | 59 | 1024.1 |
| 20260507153012 | 7 | 287 | 4.8 | 14.5 | 0.08 | 0.33 | 0.13 | 59 | 1024.1 |
| 20260507152513 | 7 | 284 | 6.4 | 14.5 | 0.08 | 0.33 | 0.13 | 61 | 1024.1 |
| 20260507152009 | 7 | 294 | 6.4 | 14.5 | 0.08 | 0.33 | 0.13 | 58 | 1024.2 |
| 20260507151508 | 6 | 248 | 3.2 | 12.9 | 0.08 | 0.33 | 0.13 | 66 | 1024.3 |
| 20260507151006 | 6 | 229 | 4.8 | 12.9 | 0.05 | 0.30 | 0.10 | 61 | 1024.3 |
| 20260507150507 | 6 | 230 | 3.2 | 14.5 | 0.08 | 0.30 | 0.10 | 68 | 1024.4 |
| 20260507150104 | 6 | 229 | 4.8 | 14.5 | 0.08 | 0.30 | 0.10 | 66 | 1024.3 |
| 20260507145503 | 6 | 246 | 4.8 | 8.0 | 0.08 | 0.30 | 0.10 | 64 | 1024.5 |
| 20260507145000 | 6 | 246 | 3.2 | 8.0 | 0.08 | 0.30 | 0.10 | 63 | 1024.4 |
| 20260507144604 | 5 | 246 | 3.2 | 8.0 | 0.08 | 0.30 | 0.10 | 64 | 1024.5 |
| 20260507144058 | 5 | 246 | 3.2 | 8.0 | 0.08 | 0.28 | 0.08 | 66 | 1024.7 |
| 20260507143556 | 5 | 246 | 3.2 | 8.0 | 0.08 | 0.28 | 0.08 | 66 | 1024.8 |
| 20260507143108 | 5 | 246 | 3.2 | 8.0 | 0.05 | 0.25 | 0.05 | 66 | 1024.7 |
| 20260507142554 | 5 | 246 | 3.2 | 8.0 | 0.05 | 0.25 | 0.05 | 68 | 1024.7 |
| 20260507142053 | 4 | 246 | 3.2 | 8.0 | 0.05 | 0.25 | 0.05 | 67 | 1024.7 |
| 20260507141607 | 4 | 246 | 3.2 | 11.3 | 0.05 | 0.25 | 0.05 | 68 | 1024.8 |
| 20260507141053 | 3 | 246 | 4.8 | 11.3 | 0.05 | 0.25 | 0.05 | 66 | 1024.9 |
| 20260507140548 | 3 | 245 | 4.8 | 11.3 | 0.03 | 0.23 | 0.03 | 70 | 1024.9 |
| 20260507140047 | 3 | 244 | 4.8 | 14.5 | 0.03 | 0.23 | 0.03 | 68 | 1025.0 |
| 20260507135544 | 3 | 221 | 6.4 | 14.5 | 0.03 | 0.23 | 0.03 | 66 | 1024.9 |
| 20260507135047 | 2 | 217 | 8.0 | 14.5 | 0.03 | 0.23 | 0.03 | 65 | 1025.0 |
| 20260507134542 | 2 | 220 | 8.0 | 14.5 | 0.03 | 0.23 | 0.03 | 64 | 1024.9 |
| 20260507134040 | 2 | 221 | 6.4 | 11.3 | 0.00 | 0.20 | 0.00 | 66 | 1024.8 |
| 20260507133541 | 2 | 243 | 4.8 | 8.0 | 0.00 | 0.20 | 0.00 | 62 | 1024.8 |
| 20260507133040 | 2 | 244 | 4.8 | 8.0 | 0.00 | 0.20 | 0.00 | 64 | 1024.8 |
| 20260507132535 | 2 | 213 | 4.8 | 8.0 | 0.00 | 0.20 | 0.00 | 65 | 1024.8 |
| 20260507132035 | 2 | 207 | 4.8 | 6.4 | 0.00 | 0.20 | 0.00 | 65 | 1024.8 |
| 20260507131538 | 2 | 207 | 3.2 | 9.7 | 0.00 | 0.20 | 0.00 | 65 | 1024.7 |
| 20260507131036 | 1 | 207 | 6.4 | 9.7 | 0.00 | 0.20 | 0.00 | 62 | 1024.8 |
| 20260507130531 | 1 | 219 | 6.4 | 9.7 | 0.00 | 0.20 | 0.00 | 63 | 1024.8 |
| 20260507130038 | 1 | 219 | 6.4 | 9.7 | 0.00 | 0.20 | 0.00 | 61 | 1024.7 |
| 20260507125527 | 1 | 221 | 6.4 | 9.7 | 0.00 | 0.20 | 0.00 | 62 | 1024.7 |
| 20260507125027 | 1 | 277 | 6.4 | 11.3 | 0.00 | 0.20 | 0.00 | 63 | 1024.6 |
| 20260507124523 | 0 | 277 | 6.4 | 11.3 | 0.00 | 0.20 | 0.00 | 64 | 1024.6 |
| 20260507124022 | 0 | 277 | 4.8 | 8.0 | 0.00 | 0.20 | 0.00 | 69 | 1024.4 |
| 20260507123520 | 0 | 277 | 4.8 | 8.0 | 0.00 | 0.20 | 0.00 | 68 | 1024.4 |
| 20260507123021 | 0 | 277 | 4.8 | 8.0 | 0.00 | 0.20 | 0.00 | 68 | 1024.4 |
| 20260507122517 | 0 | 277 | 3.2 | 8.0 | 0.00 | 0.20 | 0.00 | 67 | 1024.4 |
| 20260507122016 | 0 | 277 | 4.8 | 8.0 | 0.00 | 0.20 | 0.00 | 68 | 1024.4 |
| 20260507121515 | 0 | 277 | 3.2 | 8.0 | 0.00 | 0.20 | 0.00 | 67 | 1024.3 |
| 20260507121014 | 0 | 277 | 4.8 | 9.7 | 0.00 | 0.20 | 0.00 | 67 | 1024.5 |
| 20260507120512 | 0 | 277 | 4.8 | 8.0 | 0.00 | 0.20 | 0.00 | 67 | 1024.5 |
| 20260507120012 | 0 | 277 | 3.2 | 8.0 | 0.00 | 0.20 | 0.00 | 67 | 1024.4 |
| 20260507115512 | 0 | 277 | 4.8 | 8.0 | 0.00 | 0.20 | 0.00 | 66 | 1024.4 |
| 20260507115011 | 0 | 277 | 4.8 | 9.7 | 0.00 | 0.20 | 0.00 | 67 | 1024.5 |
| 20260507114514 | 0 | 277 | 4.8 | 9.7 | 0.00 | 0.20 | 0.00 | 66 | 1024.5 |
| 20260507114111 | 0 | 277 | 4.8 | 8.0 | 0.00 | 0.20 | 0.00 | 66 | 1024.5 |
| 20260507113511 | 0 | 277 | 4.8 | 8.0 | 0.00 | 0.20 | 0.00 | 66 | 1024.5 |
| 20260507113010 | 0 | 277 | 4.8 | 8.0 | 0.00 | 0.20 | 0.00 | 65 | 1024.5 |
| 20260507112510 | 0 | 277 | 4.8 | 8.0 | 0.00 | 0.20 | 0.00 | 64 | 1024.5 |
| 20260507112012 | 0 | 277 | 4.8 | 8.0 | 0.00 | 0.20 | 0.00 | 66 | 1024.6 |
| 20260507111510 | 0 | 277 | 4.8 | 8.0 | 0.00 | 0.20 | 0.00 | 65 | 1024.5 |
| 20260507111009 | 0 | 277 | 4.8 | 9.7 | 0.00 | 0.20 | 0.00 | 66 | 1024.6 |
| 20260507110510 | 0 | 277 | 4.8 | 8.0 | 0.00 | 0.20 | 0.00 | 64 | 1024.6 |
| 20260507110010 | 0 | 277 | 4.8 | 8.0 | 0.00 | 0.20 | 0.00 | 63 | 1024.5 |
| 20260507105509 | 0 | 277 | 4.8 | 6.4 | 0.00 | 0.20 | 0.00 | 63 | 1024.5 |
| 20260507105013 | 0 | 277 | 4.8 | 6.4 | 0.00 | 0.20 | 0.00 | 63 | 1024.3 |
| 20260507104508 | 0 | 277 | 4.8 | 6.4 | 0.00 | 0.20 | 0.00 | 61 | 1024.3 |
| 20260507104009 | 0 | 277 | 4.8 | 6.4 | 0.00 | 0.20 | 0.00 | 61 | 1024.3 |
| 20260507103505 | 0 | 277 | 4.8 | 6.4 | 0.00 | 0.20 | 0.00 | 64 | 1024.4 |
| 20260507103004 | -1 | 277 | 3.2 | 8.0 | 0.00 | 0.20 | 0.00 | 69 | 1024.5 |
| 20260507102503 | -1 | 277 | 3.2 | 8.0 | 0.00 | 0.20 | 0.00 | 72 | 1024.6 |
| 20260507102003 | -1 | 277 | 3.2 | 6.4 | 0.00 | 0.20 | 0.00 | 73 | 1024.7 |
| 20260507101504 | -1 | 277 | 1.6 | 6.4 | 0.00 | 0.20 | 0.00 | 73 | 1024.8 |
| 20260507101003 | -1 | 277 | 3.2 | 8.0 | 0.00 | 0.20 | 0.00 | 72 | 1024.6 |
| 20260507100504 | -1 | 277 | 4.8 | 8.0 | 0.00 | 0.20 | 0.00 | 75 | 1024.8 |
| 20260507100006 | -1 | 277 | 3.2 | 9.7 | 0.00 | 0.20 | 0.00 | 73 | 1024.8 |
| 20260507095502 | -1 | 277 | 3.2 | 12.9 | 0.00 | 0.20 | 0.00 | 71 | 1024.8 |
| 20260507095003 | -1 | 277 | 4.8 | 12.9 | 0.00 | 0.20 | 0.00 | 72 | 1024.7 |
| 20260507094502 | 0 | 296 | 4.8 | 11.3 | 0.00 | 0.20 | 0.00 | 73 | 1024.7 |
| 20260507094004 | 0 | 296 | 3.2 | 14.5 | 0.00 | 0.20 | 0.00 | 71 | 1024.5 |
| 20260507093600 | 0 | 289 | 4.8 | 16.1 | 0.00 | 0.20 | 0.00 | 69 | 1024.5 |
| 20260507093502 | 0 | 303 | 6.4 | 16.1 | 0.00 | 0.20 | 0.00 | 69 | 1024.5 |
| 20260507093059 | 0 | 310 | 8.0 | 16.1 | 0.00 | 0.20 | 0.00 | 70 | 1024.6 |
| 20260507092559 | 0 | 306 | 4.8 | 14.5 | 0.00 | 0.20 | 0.00 | 71 | 1024.5 |
| 20260507092058 | -1 | 309 | 4.8 | 12.9 | 0.00 | 0.20 | 0.00 | 71 | 1024.6 |
| 20260507091558 | -1 | 294 | 4.8 | 12.9 | 0.00 | 0.20 | 0.00 | 71 | 1024.8 |
| 20260507091059 | -1 | 265 | 4.8 | 12.9 | 0.00 | 0.20 | 0.00 | 71 | 1024.8 |
| 20260507090557 | -1 | 265 | 4.8 | 12.9 | 0.00 | 0.20 | 0.00 | 71 | 1024.8 |
| 20260507085600 | -1 | 252 | 3.2 | 11.3 | 0.00 | 0.20 | 0.00 | 71 | 1025.0 |
| 20260507085056 | -1 | 252 | 4.8 | 11.3 | 0.00 | 0.20 | 0.00 | 72 | 1025.0 |
| 20260507084557 | 0 | 272 | 4.8 | 11.3 | 0.00 | 0.20 | 0.00 | 70 | 1025.1 |
| 20260507084054 | 0 | 240 | 4.8 | 11.3 | 0.00 | 0.20 | 0.00 | 69 | 1025.0 |
| 20260507083556 | 0 | 215 | 4.8 | 8.0 | 0.00 | 0.20 | 0.00 | 71 | 1024.9 |
| 20260507083052 | -1 | 211 | 4.8 | 8.0 | 0.00 | 0.20 | 0.00 | 74 | 1025.0 |
| 20260507082550 | -1 | 211 | 4.8 | 8.0 | 0.00 | 0.20 | 0.00 | 75 | 1025.0 |
| 20260507082049 | -1 | 211 | 6.4 | 8.0 | 0.00 | 0.20 | 0.00 | 77 | 1025.0 |
| 20260507081554 | -1 | 211 | 4.8 | 8.0 | 0.00 | 0.20 | 0.00 | 78 | 1025.2 |
| 20260507081050 | -1 | 210 | 4.8 | 8.0 | 0.00 | 0.20 | 0.00 | 80 | 1025.1 |
| 20260507080546 | -2 | 210 | 4.8 | 8.0 | 0.00 | 0.20 | 0.00 | 82 | 1025.2 |
| 20260507080056 | -2 | 210 | 4.8 | 8.0 | 0.00 | 0.20 | 0.00 | 83 | 1025.2 |
| 20260507075545 | -2 | 210 | 3.2 | 6.4 | 0.00 | 0.20 | 0.00 | 83 | 1025.2 |
| 20260507075044 | -2 | 210 | 3.2 | 6.4 | 0.00 | 0.20 | 0.00 | 84 | 1025.3 |
| 20260507074546 | -2 | 210 | 3.2 | 6.4 | 0.00 | 0.20 | 0.00 | 85 | 1025.3 |
| 20260507074041 | -2 | 210 | 4.8 | 8.0 | 0.00 | 0.20 | 0.00 | 86 | 1025.3 |
| 20260507073544 | -2 | 210 | 4.8 | 6.4 | 0.00 | 0.20 | 0.00 | 87 | 1025.4 |
| 20260507073040 | -2 | 210 | 3.2 | 6.4 | 0.00 | 0.20 | 0.00 | 89 | 1025.4 |
| 20260507072539 | -2 | 210 | 4.8 | 6.4 | 0.00 | 0.20 | 0.00 | 90 | 1025.6 |
| 20260507072039 | -2 | 210 | 3.2 | 6.4 | 0.00 | 0.20 | 0.00 | 91 | 1025.5 |
| 20260507071538 | -2 | 210 | 3.2 | 6.4 | 0.00 | 0.20 | 0.00 | 91 | 1025.5 |
| 20260507071037 | -2 | 210 | 3.2 | 8.0 | 0.00 | 0.20 | 0.00 | 92 | 1025.6 |
| 20260507070538 | -3 | 210 | 4.8 | 8.0 | 0.00 | 0.20 | 0.00 | 93 | 1025.7 |
| 20260507070042 | -3 | 210 | 4.8 | 6.4 | 0.00 | 0.20 | 0.00 | 93 | 1025.8 |
| 20260507065537 | -3 | 210 | 3.2 | 6.4 | 0.00 | 0.20 | 0.00 | 94 | 1025.7 |
| 20260507065034 | -3 | 210 | 3.2 | 6.4 | 0.00 | 0.20 | 0.00 | 94 | 1025.7 |
| 20260507064558 | -3 | 210 | 3.2 | 6.4 | 0.00 | 0.20 | 0.00 | 94 | 1025.7 |
| 20260507064032 | -3 | 210 | 4.8 | 6.4 | 0.00 | 0.20 | 0.00 | 94 | 1025.8 |
| 20260507063531 | -3 | 210 | 4.8 | 8.0 | 0.00 | 0.20 | 0.00 | 94 | 1025.9 |
| 20260507063034 | -3 | 210 | 4.8 | 8.0 | 0.00 | 0.20 | 0.00 | 95 | 1025.9 |
| 20260507062530 | -3 | 210 | 1.6 | 6.4 | 0.00 | 0.20 | 0.00 | 95 | 1025.7 |
| 20260507062028 | -3 | 210 | 1.6 | 4.8 | 0.00 | 0.20 | 0.00 | 95 | 1025.6 |
| 20260507061530 | -3 | 210 | 1.6 | 6.4 | 0.00 | 0.20 | 0.00 | 95 | 1025.7 |
| 20260507061026 | -3 | 210 | 3.2 | 6.4 | 0.00 | 0.20 | 0.00 | 94 | 1025.6 |
| 20260507060524 | -4 | 210 | 3.2 | 4.8 | 0.00 | 0.20 | 0.00 | 94 | 1025.4 |
| 20260507060123 | -4 | 210 | 0.0 | 3.2 | 0.00 | 0.20 | 0.20 | 94 | 1025.5 |
| 20260507055523 | -3 | 210 | 0.0 | 4.8 | 0.00 | 0.20 | 0.20 | 94 | 1025.4 |
| 20260507055025 | -3 | 210 | 1.6 | 4.8 | 0.00 | 0.20 | 0.20 | 94 | 1025.3 |
| 20260507054521 | -3 | 210 | 3.2 | 4.8 | 0.00 | 0.20 | 0.20 | 94 | 1025.2 |
| 20260507054020 | -3 | 210 | 1.6 | 4.8 | 0.00 | 0.20 | 0.20 | 94 | 1025.2 |
| 20260507053520 | -3 | 210 | 3.2 | 4.8 | 0.00 | 0.20 | 0.20 | 94 | 1025.1 |
| 20260507053022 | -3 | 210 | 0.0 | 3.2 | 0.00 | 0.20 | 0.20 | 94 | 1025.1 |
| 20260507052521 | -3 | 210 | 0.0 | 3.2 | 0.00 | 0.20 | 0.20 | 94 | 1025.0 |
| 20260507052019 | -3 | 210 | 0.0 | 1.6 | 0.00 | 0.20 | 0.20 | 94 | 1025.1 |
| 20260507051519 | -3 | 210 | 0.0 | 4.8 | 0.00 | 0.20 | 0.20 | 94 | 1025.0 |
| 20260507051018 | -3 | 210 | 1.6 | 6.4 | 0.00 | 0.20 | 0.20 | 94 | 1024.9 |
| 20260507050518 | -3 | 210 | 0.0 | 8.0 | 0.00 | 0.20 | 0.20 | 94 | 1024.9 |
| 20260507050033 | -2 | 209 | 1.6 | 9.7 | 0.00 | 0.20 | 0.20 | 94 | 1024.9 |
| 20260507045519 | -2 | 202 | 4.8 | 9.7 | 0.00 | 0.20 | 0.20 | 94 | 1024.7 |
| 20260507045019 | -2 | 202 | 4.8 | 9.7 | 0.00 | 0.20 | 0.20 | 93 | 1024.8 |
| 20260507044518 | -2 | 194 | 4.8 | 11.3 | 0.00 | 0.20 | 0.20 | 94 | 1024.7 |
| 20260507044018 | -2 | 162 | 4.8 | 12.9 | 0.00 | 0.20 | 0.20 | 93 | 1024.7 |
| 20260507043518 | -2 | 189 | 4.8 | 12.9 | 0.00 | 0.20 | 0.20 | 93 | 1024.7 |
| 20260507043017 | -2 | 186 | 6.4 | 12.9 | 0.00 | 0.20 | 0.20 | 93 | 1024.8 |
| 20260507042518 | -2 | 174 | 3.2 | 12.9 | 0.00 | 0.20 | 0.20 | 93 | 1024.6 |
| 20260507042017 | -2 | 193 | 3.2 | 19.3 | 0.00 | 0.20 | 0.20 | 93 | 1024.7 |
| 20260507041524 | -2 | 213 | 6.4 | 19.3 | 0.00 | 0.20 | 0.20 | 93 | 1024.8 |
| 20260507041018 | -2 | 184 | 6.4 | 16.1 | 0.00 | 0.20 | 0.20 | 93 | 1024.8 |
| 20260507040517 | -2 | 214 | 4.8 | 12.9 | 0.00 | 0.20 | 0.20 | 93 | 1024.9 |
| 20260507040016 | -2 | 197 | 4.8 | 12.9 | 0.00 | 0.20 | 0.20 | 93 | 1024.8 |
| 20260507035516 | -2 | 205 | 6.4 | 14.5 | 0.00 | 0.20 | 0.20 | 93 | 1024.9 |
| 20260507035016 | -2 | 148 | 4.8 | 12.9 | 0.00 | 0.20 | 0.20 | 93 | 1024.8 |
| 20260507034516 | -2 | 202 | 6.4 | 16.1 | 0.00 | 0.20 | 0.20 | 93 | 1024.9 |
| 20260507034017 | -2 | 202 | 4.8 | 16.1 | 0.00 | 0.20 | 0.20 | 93 | 1024.9 |
| 20260507033517 | -2 | 198 | 9.7 | 14.5 | 0.00 | 0.20 | 0.20 | 92 | 1024.9 |
| 20260507033020 | -2 | 207 | 8.0 | 14.5 | 0.00 | 0.20 | 0.20 | 92 | 1024.9 |
| 20260507032514 | -2 | 194 | 4.8 | 14.5 | 0.00 | 0.20 | 0.20 | 92 | 1024.9 |
| 20260507032115 | -2 | 180 | 6.4 | 14.5 | 0.00 | 0.20 | 0.20 | 92 | 1024.9 |
| 20260507031517 | -2 | 235 | 4.8 | 16.1 | 0.00 | 0.20 | 0.20 | 92 | 1024.8 |
| 20260507031015 | -2 | 200 | 3.2 | 12.9 | 0.00 | 0.20 | 0.20 | 92 | 1024.7 |
| 20260507030518 | -2 | 200 | 3.2 | 8.0 | 0.00 | 0.20 | 0.20 | 92 | 1024.7 |
| 20260507030025 | -2 | 200 | 3.2 | 9.7 | 0.00 | 0.20 | 0.20 | 91 | 1024.6 |
| 20260507025514 | -2 | 200 | 4.8 | 11.3 | 0.00 | 0.20 | 0.20 | 91 | 1024.5 |
| 20260507025014 | -2 | 200 | 3.2 | 11.3 | 0.00 | 0.20 | 0.20 | 91 | 1024.5 |
| 20260507024522 | -2 | 217 | 4.8 | 11.3 | 0.00 | 0.20 | 0.20 | 91 | 1024.6 |
| 20260507024013 | -2 | 217 | 4.8 | 12.9 | 0.00 | 0.20 | 0.20 | 91 | 1024.5 |
| 20260507023515 | -1 | 211 | 8.0 | 16.1 | 0.00 | 0.20 | 0.20 | 90 | 1024.5 |
| 20260507023013 | -1 | 220 | 6.4 | 16.1 | 0.00 | 0.20 | 0.20 | 90 | 1024.5 |
| 20260507022513 | -1 | 216 | 4.8 | 14.5 | 0.00 | 0.20 | 0.20 | 90 | 1024.5 |
| 20260507022013 | -1 | 217 | 6.4 | 12.9 | 0.00 | 0.20 | 0.20 | 90 | 1024.5 |
| 20260507021515 | -1 | 212 | 4.8 | 14.5 | 0.00 | 0.20 | 0.20 | 90 | 1024.5 |
| 20260507021014 | -1 | 219 | 6.4 | 16.1 | 0.00 | 0.20 | 0.20 | 90 | 1024.5 |
| 20260507020513 | -1 | 212 | 4.8 | 16.1 | 0.00 | 0.20 | 0.20 | 89 | 1024.3 |
| 20260507020012 | -1 | 225 | 8.0 | 14.5 | 0.00 | 0.20 | 0.20 | 89 | 1024.3 |
| 20260507015516 | -1 | 209 | 8.0 | 16.1 | 0.00 | 0.20 | 0.20 | 88 | 1024.3 |
| 20260507015014 | -1 | 223 | 6.4 | 12.9 | 0.00 | 0.20 | 0.20 | 88 | 1024.2 |
| 20260507014513 | 0 | 205 | 8.0 | 16.1 | 0.00 | 0.20 | 0.20 | 87 | 1024.2 |
| 20260507014011 | 0 | 232 | 9.7 | 14.5 | 0.00 | 0.20 | 0.20 | 87 | 1024.2 |
| 20260507013510 | 0 | 207 | 8.0 | 14.5 | 0.00 | 0.20 | 0.20 | 87 | 1024.1 |
| 20260507013013 | 0 | 229 | 6.4 | 12.9 | 0.03 | 0.20 | 0.20 | 87 | 1024.2 |
| 20260507012510 | 0 | 213 | 6.4 | 16.1 | 0.03 | 0.20 | 0.20 | 86 | 1024.2 |
| 20260507012010 | 0 | 238 | 6.4 | 16.1 | 0.03 | 0.20 | 0.20 | 86 | 1024.2 |
| 20260507011509 | 0 | 205 | 9.7 | 16.1 | 0.03 | 0.20 | 0.20 | 85 | 1024.2 |
| 20260507011009 | 0 | 176 | 4.8 | 17.7 | 0.03 | 0.20 | 0.20 | 86 | 1024.2 |
| 20260507010510 | 0 | 197 | 8.0 | 17.7 | 0.03 | 0.20 | 0.20 | 85 | 1024.3 |
| 20260507010010 | 0 | 219 | 6.4 | 12.9 | 0.03 | 0.20 | 0.20 | 85 | 1024.3 |
| 20260507005512 | 0 | 249 | 6.4 | 14.5 | 0.05 | 0.20 | 0.20 | 85 | 1024.3 |
| 20260507005010 | 0 | 206 | 6.4 | 14.5 | 0.05 | 0.20 | 0.20 | 84 | 1024.2 |
| 20260507004509 | 0 | 225 | 6.4 | 14.5 | 0.05 | 0.20 | 0.20 | 84 | 1024.2 |
| 20260507004008 | 0 | 180 | 4.8 | 16.1 | 0.05 | 0.20 | 0.20 | 85 | 1024.2 |
| 20260507003509 | 0 | 181 | 6.4 | 16.1 | 0.05 | 0.20 | 0.20 | 84 | 1024.2 |
| 20260507003008 | 0 | 206 | 4.8 | 12.9 | 0.03 | 0.18 | 0.18 | 84 | 1024.2 |
| 20260507002508 | 0 | 202 | 4.8 | 16.1 | 0.03 | 0.18 | 0.18 | 85 | 1024.3 |
| 20260507002009 | 0 | 203 | 6.4 | 16.1 | 0.03 | 0.18 | 0.18 | 84 | 1024.2 |
| 20260507001508 | 0 | 236 | 4.8 | 12.9 | 0.03 | 0.18 | 0.18 | 84 | 1024.3 |
| 20260507001006 | 0 | 213 | 6.4 | 14.5 | 0.03 | 0.18 | 0.18 | 85 | 1024.4 |
| 20260507000506 | 0 | 188 | 6.4 | 14.5 | 0.05 | 0.18 | 0.18 | 85 | 1024.5 |